Regional Weather Roundup
Issued by NWS

Home | Current Version | Previous Version | Graphics & Text | Print | Product List | Glossary On
Versions: 1 2 3 4 5 6 7 8 9 10 11 12 13 14 15 16 17 18 19 20 21 22 23 24 25 26 27 28 29 30 31 32 33 34 35 36 37 38 39 40 41 42 43 44 45 46 47 48 49 50
000
ASUS43 KLOT 212308
RWRIL

ILLINOIS REGIONAL WEATHER ROUNDUP
NATIONAL WEATHER SERVICE CHICAGO/ROMEOVILLE IL
500 PM CST SUN JAN 21 2018

NOTE: "FAIR" INDICATES FEW OR NO CLOUDS BELOW 12,000 FEET WITH NO
SIGNIFICANT WEATHER AND/OR OBSTRUCTIONS TO VISIBILITY.

* THESE STATIONS ARE NOT UNDER NWS QUALITY CONTROL. THEY ALSO MAY NOT
  REPORT WEATHER SUCH AS PRECIPITATION OR FOG.

ILZ001-002-007-009-015-016-024-220000-
NORTHWEST ILLINOIS

CITY           SKY/WX    TMP DP  RH WIND       PRES   REMARKS
MOLINE         FOG       44  43  96 E8        29.83R VSB 1
STERLING*        N/A    N/A N/A N/A MISG        N/A
SAVANNA*       CLOUDY    39  39  99 NE6       29.86R FOG     WCI  35
$$

ILZ003-004-008-010-011-017-018-220000-
NORTH CENTRAL ILLINOIS

CITY           SKY/WX    TMP DP  RH WIND       PRES   REMARKS
ROCKFORD       FOG       39  38  96 E8        29.89F VSB 1/8 WCI  33
FREEPORT*      FOG       37  37 100 E5        29.89S VSB 1/4 WCI  33
ROCHELLE*      FOG       39  39 100 E7        29.88F VSB 1/4 WCI  34
DE KALB*       DRZL/FOG  40  40  99 E7        29.89R VSB<1/4
PERU*          FOG       43  42  99 E5        29.87S VSB<1/4
$$

ILZ005-006-012>014-019>023-220000-
NORTHEAST ILLINOIS

CITY           SKY/WX    TMP DP  RH WIND       PRES   REMARKS
CHICAGO-OHARE  FOG       43  40  89 E6        29.90R VSB 1/4
CHICAGO-MIDWAY CLOUDY    43  42  97 E5        29.91R FOG
AURORA         FOG       42  42 100 E6        29.89R VSB 1/4
LANSING*       FOG       44  44 100 CALM      29.91S VSB 1
JOLIET*        FOG       44  44 100 SE5       29.89S VSB 1/2
WAUKEGAN       FOG       36  36 100 NE5       29.91S VSB 1/2 WCI  32
DUPAGE AIRPORT FOG       42  42 100 E5        29.89R VSB<1/4
KANKAKEE*      FOG      N/A N/A N/A SE6       29.91S VSB<1/4
WHEELING       FOG       43  42  97 CALM      29.92S VSB 1
MORRIS*        FOG       44  43  97 E6        29.88S VSB 1/4
ROMEOVILLE*    FOG       43  43 100 E5        29.89F VSB 1/2
NORTHERLY ISL    N/A     36  34  92 E1          N/A
$$

LMZ740>746-220000-
SOUTHERN LAKE MICHIGAN

STATION/POSITION SKY/WX   TEMP    WIND        PRES    VSBY  WAVE
                          AIR SEA DIR/SP/G                  HT/PER
                          (F)     (DEG/KT/KT) (MB)    (MI)  (FT/S)
HARRISON CRIB              41     110/ 14/ 14   N/A
BURNHAM HARBOR             36      40/  2       N/A
CALUMET HARBOR             36      20/  2/  2 1012.5R
BURNS HARBOR               45     170/  5/  8 1013.9S
MICHIGAN CITY              43     130/  4/  5   N/A
$$

ILZ025>027-034>036-040-047-049-050-058-095>099-220000-
WEST-CENTRAL ILLINOIS

CITY           SKY/WX    TMP DP  RH WIND       PRES   REMARKS
QUINCY         PTCLDY    58  51  78 E9        29.77S
GALESBURG*     CLOUDY    50  47  92 E7        29.82F
MACOMB*        CLOUDY    53  50  87 E6        29.82S
JACKSONVILLE*  CLOUDY    54  50  87 E7        29.81R
PITTSFIELD*    CLOUDY    60  53  78 E3        29.80R
$$

ILZ028>032-037-038-041>044-048-051>054-059>061-220000-
CENTRAL ILLINOIS

CITY           SKY/WX    TMP DP  RH WIND       PRES   REMARKS
PONTIAC        FOG       47  47  99 SE7       29.88S VSB 1/4
BLOOMINGTON    CLOUDY    52  51  97 S8        29.88R
DECATUR        CLOUDY    53  53 100 S15       29.89R FOG
PEORIA         CLOUDY    54  51  90 SE5       29.85R FOG
LACON*           N/A     48  48 100 MISG        N/A
LINCOLN*       CLOUDY    55  54  97 SE10      29.86S
SPRINGFIELD    CLOUDY    57  53  86 SE12      29.84S
TAYLORVILLE    CLOUDY    54  52  94 SE16      29.86S
$$

ILZ033-039-045-046-055>057-062-063-220000-
EAST-CENTRAL ILLINOIS

CITY           SKY/WX    TMP DP  RH WIND       PRES   REMARKS
CHAMPAIGN      FOG       49  49 100 S16       29.91R VSB 1/4
DANVILLE*      CLOUDY    47  47 100 S10       29.91R FOG
RANTOUL*       FOG       50  50  99 S12       29.91R VSB 1/4
MATTOON        FOG       48  48 100 S14       29.91S VSB 1/4
PARIS*         CLOUDY    47  47 100 S13       29.96S FOG
$$

ILZ079-100>102-220000-
SOUTHWEST ILLINOIS

CITY           SKY/WX    TMP DP  RH WIND       PRES   REMARKS
ALTON          MOCLDY    55  54  94 SE13      29.85S
BELLEVILLE     CLOUDY    55  52  88 S14       29.85F
CAHOKIA*       CLOUDY    58  52  80 SE13      29.84S
SPARTA*        CLOUDY    53  53 100 S10G17    29.91S
$$

ILZ064>066-069>071-074>076-080>082-084>086-088>090-092>094-220000-
SOUTH-CENTRAL ILLINOIS

CITY           SKY/WX    TMP DP  RH WIND       PRES   REMARKS
CARBONDALE     CLOUDY    55  55 100 S10       29.93F
CAIRO*         FOG       50  50  99 CALM      29.94F VSB 1
EFFINGHAM*     FOG       50  50 100 SE7       29.95S VSB 1
MT. VERNON     CLOUDY    53  52  96 S14       29.94S FOG
CENTRALIA*     CLOUDY    53  53  99 S9        29.91S FOG
SALEM*         CLOUDY    54  52  94 S9        29.92S FOG
METROPOLIS*    CLOUDY    59  54  82 SE5       29.96F
$$

ILZ067-068-072-073-078-083-087-091-220000-
SOUTHEAST ILLINOIS

CITY           SKY/WX    TMP DP  RH WIND       PRES   REMARKS
LAWRENCEVILLE  FOG       46  46 100 S12       29.98S VSB<1/4
FLORA*         FOG       52  52  99 S10       29.94F VSB 1
FAIRFIELD*     CLOUDY    51  51 100 S5        29.95S FOG
HARRISBURG*    DRIZZLE   52  51  98 S6        29.98R
ROBINSON*      FOG       47  47 100 S9        29.98R VSB 1
CARMI*         CLOUDY    47  46  99 S10       29.98S
$$

ABBREVIATIONS USED IN REMARKS
   TC - TEMPERATURE IN CELSIUS
  WCI - WIND CHILL INDEX
   HX - HEAT INDEX
  VSB - VISIBILITY
$$




USA.gov is the U.S. government's official web portal to all federal, state and local government web resources and services.